Naples, FL

2:53 AM EDT on June 27, 2017 (GMT -0400)
Naples Municipal

Weather History for KAPF - September, 2013

Change the Weather History Date:

Sunday, September 22, 2013

  Actual Average Record
Temperature  
Mean Temperature 82 °F 82 °F  
Max Temperature 88 °F 90 °F 95 °F (1961)
Min Temperature 75 °F 74 °F 68 °F (1981)
Degree Days  
Heating Degree Days 0 0  
Month to date heating degree days 0 0  
Since 1 July heating degree days 0 0  
Cooling Degree Days 17 17  
Month to date cooling degree days 375 389  
Year to date cooling degree days 3070 3046  
Growing Degree Days 31 (Base 50)    
Moisture  
Dew Point 76 °F    
Average Humidity 81    
Maximum Humidity 94    
Minimum Humidity 68    
Precipitation  
Precipitation 0.00 in 0.28 in 4.35 in (1948)
Month to date precipitation 9.92 5.74  
Year to date precipitation 45.93 42.26  
Snow  
Snow 0.00 in - - ()
Month to date snowfall 0.0  
Since 1 July snowfall 0.0  
Since 1 September snowfall 0.0  
Snow Depth 0.00 in    
Sea Level Pressure  
Sea Level Pressure 29.82 in    
Wind  
Wind Speed 5 mph (SSW)    
Max Wind Speed 15 mph    
Max Gust Speed 18 mph    
Visibility 10 miles    
Events      
T = Trace of Precipitation, MM = Missing Value Source: NWS Daily Summary

Daily Weather History Graph

Daily Weather History Graph

Search for Another Location

Airport or City:

Trip Planner

Search our weather history database for the weather conditions in past years. The results will help you decide how hot, cold, wet, or windy it might be!

Date:

Astronomy

Sep. 22, 2013 Rise Set
Actual Time 7:15 AM EDT 7:23 PM EDT
Civil Twilight 6:52 AM EDT 7:46 PM EDT
Nautical Twilight 6:25 AM EDT 8:13 PM EDT
Astronomical Twilight 5:58 AM EDT 8:40 PM EDT
Moon 9:36 PM EDT (9/22) 10:12 AM EDT (9/22)
Length of Visible Light 12h 53m
Length of Day
12h 07m
Waning Gibbous, 89% of the Moon is Illuminated
Sep 22
Waning Gibbous
Sep 26
Last Quarter
Oct 4
New
Oct 11
First Quarter
Oct 18
Full

Hourly Weather History & Observations

Time (EDT) Temp. Heat Index Dew Point Humidity Pressure Visibility Wind Dir Wind Speed Gust Speed Precip Events Conditions
12:53 AM 77.0 °F - 73.9 °F 90% 29.82 in 10.0 mi East 3.5 mph - N/A   Clear
1:53 AM 77.0 °F - 75.0 °F 94% 29.81 in 10.0 mi Calm Calm - N/A   Clear
2:53 AM 77.0 °F - 75.0 °F 94% 29.80 in 10.0 mi Calm Calm - N/A   Clear
3:53 AM 77.0 °F - 75.0 °F 94% 29.79 in 10.0 mi Calm Calm - N/A   Clear
4:53 AM 75.9 °F - 73.9 °F 94% 29.79 in 10.0 mi Calm Calm - N/A   Clear
5:53 AM 75.9 °F - 73.9 °F 94% 29.79 in 10.0 mi ESE 3.5 mph - N/A   Clear
6:53 AM 75.9 °F - 73.9 °F 94% 29.80 in 10.0 mi Calm Calm - N/A   Clear
7:53 AM 75.9 °F - 73.9 °F 94% 29.81 in 10.0 mi Calm Calm - N/A   Clear
8:53 AM 81.0 °F 87.3 °F 75.9 °F 85% 29.82 in 10.0 mi SE 5.8 mph - N/A   Clear
9:53 AM 84.0 °F 91.9 °F 75.0 °F 74% 29.83 in 10.0 mi South 10.4 mph - N/A   Scattered Clouds
10:53 AM 84.9 °F 91.4 °F 73.0 °F 67% 29.84 in 10.0 mi South 10.4 mph - N/A   Scattered Clouds
11:53 AM 84.9 °F 93.3 °F 75.0 °F 72% 29.84 in 10.0 mi South 11.5 mph 18.4 mph N/A   Scattered Clouds
12:53 PM 84.9 °F 93.3 °F 75.0 °F 72% 29.83 in 10.0 mi SSW 11.5 mph - N/A   Partly Cloudy
1:53 PM 87.1 °F 97.3 °F 75.9 °F 69% 29.82 in 10.0 mi South 9.2 mph - N/A   Partly Cloudy
2:53 PM 87.1 °F 97.3 °F 75.9 °F 69% 29.81 in 10.0 mi SW 12.7 mph 18.4 mph N/A   Partly Cloudy
3:53 PM 87.1 °F 98.8 °F 77.0 °F 72% 29.79 in 10.0 mi SW 10.4 mph - N/A   Mostly Cloudy
4:20 PM 86.0 °F 96.9 °F 77.0 °F 74% 29.79 in 10.0 mi SW 9.2 mph - N/A   Scattered Clouds
4:53 PM 86.0 °F 96.0 °F 75.9 °F 72% 29.78 in 10.0 mi WSW 6.9 mph - N/A   Partly Cloudy
5:53 PM 87.1 °F 98.8 °F 77.0 °F 72% 29.79 in 10.0 mi West 8.1 mph - N/A   Partly Cloudy
6:53 PM 84.0 °F 92.6 °F 75.9 °F 76% 29.81 in 10.0 mi WSW 4.6 mph - N/A   Clear
7:53 PM 82.9 °F 91.8 °F 77.0 °F 82% 29.82 in 10.0 mi Calm Calm - N/A   Scattered Clouds
8:53 PM 82.9 °F 91.8 °F 77.0 °F 82% 29.83 in 10.0 mi Calm Calm - N/A   Clear
9:53 PM 81.0 °F 87.9 °F 77.0 °F 88% 29.86 in 9.0 mi SE 4.6 mph - N/A   Clear
10:53 PM 81.0 °F 87.9 °F 77.0 °F 88% 29.87 in 9.0 mi Calm Calm - N/A   Clear
11:53 PM 80.1 °F 85.8 °F 77.0 °F 90% 29.87 in 8.0 mi Calm Calm - N/A   Clear